[[{"header":{"parameterUnit":"m.s-1","parameterCategory":1,"la1":30.2991,"la2":30.254,"lo1":-89.0895,"lo2":-89.0444,"dy":0.0017,"dx":0.0017,"nx":28,"ny":28,"refTime":"2024-07-25T21:00:00:Z","depth":0,"parameterNumber":2,"parameterNumberName":"U-component_of_WINDS"},"data":[0,0,0,0,0,0,0,0,0,0,0,0,0,0,0,0,0,0,0,0,0,0,0,0,0,0,0,0,0,0,0,0,0,0,0,0,0,0,0,0,0,0,0,0,0,0,0,0,0,0,0,0,0,0,0,0,0,0,-2.3404,-2.3404,0,-2.3438,-2.3438,-2.3438,-2.3402,-2.3401,-2.3399,-2.3398,-2.3431,-2.3433,-2.3436,0,0,0,0,0,0,0,0,0,0,0,0,0,-2.3308,-2.331,-2.3404,-2.3404,-2.3405,-2.3438,-2.3438,-2.3439,-2.3402,-2.3401,-2.3399,-2.3397,-2.3431,-2.3433,-2.3436,0,0,0,0,0,0,0,0,0,0,0,0,0,-2.3347,-2.3311,-2.3404,-2.3391,-2.339,-2.3438,-2.3438,-2.3439,-2.3403,-2.3401,-2.3399,-2.3397,-2.343,-2.3433,-2.3436,-2.3498,0,0,-2.3446,-2.3448,0,0,0,0,0,0,0,0,-2.3345,-2.335,-2.3392,-2.3392,-2.3391,-2.3414,-2.3417,-2.3459,-2.3403,-2.3398,-2.3398,-2.3396,-2.3427,-2.343,-2.3441,-2.35,-2.3501,-2.3446,-2.3448,-2.345,-2.3451,0,0,0,0,0,0,0,-2.3342,-2.3349,-2.3417,-2.3393,-2.3392,-2.3383,-2.3386,-2.3424,-2.3424,-2.3398,-2.3396,-2.34,-2.3426,-2.3438,-2.3442,-2.3502,-2.3446,-2.3449,-2.3451,-2.3453,-2.3614,-2.3617,0,0,0,0,0,0,-2.3341,-2.3347,-2.3416,-2.3418,-2.3362,-2.3387,-2.339,-2.3408,-2.3423,-2.3423,-2.3402,-2.3398,-2.3434,-2.3438,-2.3443,-2.3517,-2.345,-2.3453,-2.3455,-2.3612,-2.3615,-2.3617,0,0,0,0,0,0,-2.3339,-2.3347,-2.3415,-2.3382,-2.339,-2.3391,-2.3411,-2.341,-2.3422,-2.3426,-2.3426,-2.3414,-2.3432,-2.3438,-2.3485,-2.3517,-2.3454,-2.3457,-2.3609,-2.3613,-2.3616,-2.3665,0,0,0,0,0,0,-2.3336,-2.3347,-2.337,-2.3383,-2.3392,-2.3456,-2.3413,-2.3412,-2.3428,-2.3424,-2.3437,-2.3438,-2.3431,-2.348,-2.3488,-2.3521,-2.346,-2.3606,-2.3611,-2.3615,-2.366,-2.3669,-2.3677,0,0,0,0,0,-2.3333,-2.3382,-2.3371,-2.338,-2.3421,-2.3458,-2.3463,-2.3455,-2.3431,-2.3454,-2.3457,-2.3437,-2.3513,-2.3486,-2.3494,-2.3528,-2.3604,-2.361,-2.3615,-2.3656,-2.3668,-2.3677,0,0,0,0,0,0,-2.3371,-2.3383,-2.3371,-2.3426,-2.3442,-2.3452,-2.3481,-2.3467,-2.3489,-2.3484,-2.3473,-2.3476,-2.3526,-2.3532,-2.3501,-2.359,-2.3555,-2.3562,-2.3583,-2.3594,-2.3603,-2.3599,-2.3463,0,0,0,0,0,-2.3387,-2.3416,-2.3425,-2.3472,-2.348,-2.348,-2.3496,-2.3488,-2.3504,-2.351,-2.3516,-2.3532,-2.3559,-2.3577,-2.3603,-2.3662,-2.3665,-2.369,-2.3698,-2.3705,-2.3711,-2.3744,-2.3755,-2.3635,-2.3635,-2.3634,0,0,-2.3417,-2.3427,-2.3446,-2.348,-2.3491,-2.3522,-2.3485,-2.3519,-2.3542,-2.3515,-2.3559,-2.3565,-2.3582,-2.3636,-2.366,-2.3642,-2.3746,-2.3712,-2.3718,-2.3719,-2.375,-2.3762,-2.3772,-2.3638,-2.3638,-2.3637,0,0,-2.3488,-2.3499,-2.354,-2.3553,-2.3571,-2.3571,-2.3581,-2.3595,-2.3598,-2.3643,-2.3623,-2.3651,-2.3698,-2.3712,-2.3724,-2.3805,-2.3788,-2.3814,-2.3858,-2.389,-2.3899,-2.3908,-2.3936,-2.3947,-2.382,-2.382,-2.3821,0,-2.3524,-2.357,-2.3563,-2.3599,-2.3614,-2.3593,-2.3635,-2.3647,-2.3673,-2.3684,-2.3665,-2.3725,-2.3735,-2.3792,-2.3812,-2.3823,-2.3835,-2.3811,-2.3899,-2.3907,-2.3915,-2.3942,-2.3953,-2.3823,-2.3823,-2.3823,-2.3822,0,-2.3613,-2.3646,-2.3676,-2.3703,-2.3722,-2.3761,-2.376,-2.378,-2.3773,-2.3775,-2.3822,-2.3834,-2.3862,-2.3875,-2.3867,-2.3932,-2.3921,-2.3901,-2.3865,-2.3929,-2.3955,-2.3965,-2.3828,-2.3827,-2.3826,-2.3825,0,0,-2.3705,-2.373,-2.3741,-2.3754,-2.3774,-2.3799,-2.3838,-2.3866,-2.3884,-2.3904,-2.3936,-2.3979,-2.3961,-2.3976,-2.397,-2.3998,-2.4062,-2.3975,-2.3975,-2.399,-2.4134,-2.4148,-2.416,-2.4052,-2.4054,-2.4055,-2.4132,0,-2.3777,-2.3844,-2.384,-2.3903,-2.3933,-2.3916,-2.395,-2.3966,-2.397,-2.3997,-2.4002,-2.4032,-2.4006,-2.4015,-2.4043,-2.4048,-2.409,-2.4043,-2.4081,-2.4082,-2.4075,-2.4173,-2.4187,-2.4259,-2.4142,-2.4144,-2.4145,0,-2.3868,-2.3892,-2.3958,-2.3976,-2.3989,-2.4019,-2.4046,-2.4072,-2.4091,-2.4092,-2.4111,-2.4101,-2.4141,-2.4107,-2.4162,-2.413,-2.4146,-2.4151,-2.4154,-2.4155,-2.4116,-2.4176,-2.4281,-2.4292,-2.416,-2.4159,-2.4158,0,-2.3928,-2.3977,-2.4023,-2.4035,-2.4057,-2.4079,-2.4089,-2.4106,-2.4125,-2.4149,-2.416,-2.4189,-2.4204,-2.4226,-2.4225,-2.42,-2.4281,-2.4246,-2.4283,-2.4283,-2.4298,-2.4297,-2.4406,-2.4312,-2.4312,-2.4311,-2.4311,0,-2.4007,-2.4048,-2.4051,-2.4079,-2.4125,-2.4122,-2.4168,-2.4175,-2.4192,-2.4222,-2.4209,-2.4237,-2.4234,-2.4263,-2.4263,-2.4309,-2.4316,-2.4318,-2.4317,-2.4318,-2.4317,-2.4326,-2.4321,-2.4314,-2.4314,-2.4313,-2.4313,0,-2.408,-2.4084,-2.4133,-2.4151,-2.4157,-2.419,-2.4206,-2.4233,-2.4238,-2.4276,-2.4285,-2.4292,-2.4325,-2.4327,-2.4366,-2.4365,-2.4421,-2.4415,-2.4414,-2.4413,-2.4449,-2.4445,-2.4566,-2.4582,-2.4479,-2.448,-2.4481,0,-2.4129,-2.416,-2.4183,-2.4202,-2.4214,-2.4246,-2.4265,-2.4264,-2.4284,-2.4311,-2.4335,-2.4368,-2.4394,-2.4449,-2.4457,-2.4487,-2.4481,-2.4522,-2.4485,-2.4486,-2.4481,-2.4478,-2.4481,-2.4528,-2.4529,-2.453,-2.4531,0,-2.4215,-2.4216,-2.4244,-2.4274,-2.4298,-2.4321,-2.4343,-2.436,-2.4362,-2.4386,-2.4421,-2.4441,-2.4482,-2.4515,-2.4545,-2.4555,-2.4544,-2.4543,-2.4553,-2.4553,-2.4551,-2.4552,-2.4432,-2.4539,-2.4539,-2.4538,-2.4538,-2.4537,-2.4276,-2.4304,-2.4325,-2.4357,-2.4374,-2.4396,-2.4423,-2.4432,-2.4461,-2.4494,-2.4493,-2.4532,-2.4553,-2.4592,-2.4606,-2.4636,-2.4622,-2.4637,-2.464,-2.4643,-2.4646,-2.4548,-2.4642,-2.4642,-2.4642,-2.4641,-2.4641,0,-2.4361,-2.4374,-2.4405,-2.4436,-2.4463,-2.4452,-2.4476,-2.4498,-2.4533,-2.4554,-2.4581,-2.4622,-2.4655,-2.4667,-2.47,-2.4722,-2.4717,-2.473,-2.4727,-2.473,-2.4657,-2.4645,-2.4733,-2.4733,-2.4733,-2.4733,-2.4733,-2.4733,-2.4407,-2.4454,-2.4458,-2.4514,-2.4527,-2.4565,-2.458,-2.4601,-2.4617,-2.4664,-2.4692,-2.4701,-2.4719,-2.4753,-2.4783,-2.4786,-2.4798,-2.4813,-2.4813,-2.4745,-2.4735,-2.4726,-2.4715,-2.4816,-2.4816,-2.4883,-2.4884,-2.4884]},{"header":{"parameterUnit":"m.s-1","parameterCategory":1,"la1":30.2991,"la2":30.254,"lo1":-89.0895,"lo2":-89.0444,"dy":0.0017,"dx":0.0017,"nx":28,"ny":28,"refTime":"2024-07-25T21:00:00:Z","depth":0,"parameterNumber":3,"parameterNumberName":"V-component_of_WINDS"},"data":[0,0,0,0,0,0,0,0,0,0,0,0,0,0,0,0,0,0,0,0,0,0,0,0,0,0,0,0,0,0,0,0,0,0,0,0,0,0,0,0,0,0,0,0,0,0,0,0,0,0,0,0,0,0,0,0,0,0,2.8954,2.8953,0,2.8836,2.8835,2.8833,2.8775,2.8775,2.8775,2.8775,2.8649,2.8646,2.8643,0,0,0,0,0,0,0,0,0,0,0,0,0,2.9126,2.9123,2.8954,2.8953,2.8951,2.8836,2.8835,2.8833,2.8775,2.8775,2.8775,2.8775,2.8651,2.8647,2.8642,0,0,0,0,0,0,0,0,0,0,0,0,0,2.9034,2.9122,2.8955,2.8909,2.8904,2.8837,2.8835,2.8833,2.8775,2.8775,2.8775,2.8775,2.8652,2.8647,2.8642,2.861,0,0,2.8626,2.8624,0,0,0,0,0,0,0,0,2.9039,2.9028,2.8917,2.8912,2.8906,2.8821,2.8849,2.8758,2.8775,2.8824,2.8775,2.8775,2.8706,2.8697,2.8674,2.8604,2.8599,2.8626,2.8623,2.8621,2.8619,0,0,0,0,0,0,0,2.9046,2.9032,2.8907,2.8916,2.8909,2.8893,2.888,2.8831,2.8766,2.882,2.8815,2.8802,2.8703,2.8679,2.8671,2.8597,2.8626,2.8622,2.8619,2.8617,2.8495,2.8495,0,0,0,0,0,0,2.906,2.9038,2.8911,2.8904,2.8974,2.889,2.8875,2.8848,2.8766,2.8754,2.8802,2.88,2.8688,2.8677,2.8666,2.8623,2.8621,2.8616,2.8613,2.8495,2.8495,2.8495,0,0,0,0,0,0,2.9064,2.9049,2.8916,2.897,2.8952,2.8887,2.8857,2.8846,2.8822,2.8753,2.8741,2.879,2.8687,2.8673,2.8625,2.8618,2.8614,2.8609,2.8496,2.8495,2.8495,2.8538,0,0,0,0,0,0,2.9069,2.9051,2.9039,2.897,2.8949,2.8878,2.8856,2.8843,2.8814,2.881,2.8739,2.8727,2.8686,2.8633,2.862,2.8611,2.8605,2.8496,2.8496,2.8495,2.8537,2.854,2.8542,0,0,0,0,0,2.9075,2.9055,2.9039,2.9024,2.8933,2.8878,2.8866,2.8821,2.8814,2.88,2.8757,2.8729,2.8622,2.8628,2.8613,2.8603,2.8496,2.8496,2.8495,2.8536,2.8539,2.8542,0,0,0,0,0,0,2.9123,2.9045,2.9026,2.8983,2.8938,2.8868,2.885,2.8825,2.8779,2.8777,2.8722,2.8706,2.8663,2.8628,2.8637,2.8568,2.8556,2.8553,2.8592,2.8595,2.8597,2.8606,2.8601,0,0,0,0,0,2.9129,2.9092,2.9025,2.8993,2.8972,2.8915,2.889,2.8859,2.8809,2.8789,2.8742,2.8693,2.8648,2.8619,2.8574,2.8532,2.8516,2.8518,2.852,2.8522,2.852,2.8495,2.8495,2.8494,2.8494,2.8494,0,0,2.9139,2.9092,2.9072,2.9002,2.8963,2.8925,2.8899,2.886,2.8831,2.8782,2.8734,2.8698,2.864,2.8595,2.8573,2.8565,2.8517,2.8522,2.8524,2.852,2.8494,2.8495,2.8495,2.8493,2.8493,2.8493,0,0,2.914,2.9101,2.907,2.9033,2.8975,2.8938,2.8931,2.8865,2.884,2.8792,2.8755,2.8718,2.8642,2.8603,2.8572,2.856,2.8533,2.8546,2.8557,2.8534,2.8534,2.8534,2.8529,2.8528,2.8544,2.8544,2.8544,0,2.916,2.9103,2.9057,2.9021,2.899,2.8947,2.8915,2.888,2.8811,2.879,2.8783,2.8687,2.8645,2.859,2.8587,2.8564,2.8553,2.8554,2.8538,2.8537,2.8536,2.8531,2.8529,2.8546,2.8546,2.8546,2.8546,0,2.913,2.9091,2.9073,2.9009,2.8977,2.8943,2.8891,2.8864,2.8836,2.88,2.8751,2.8699,2.8643,2.8628,2.86,2.8569,2.8566,2.8549,2.8535,2.8539,2.8533,2.8531,2.8549,2.8548,2.8548,2.8547,0,0,2.9156,2.9069,2.9063,2.9033,2.8967,2.8935,2.8899,2.8846,2.8824,2.8777,2.8745,2.8682,2.8667,2.8633,2.86,2.8579,2.8572,2.8565,2.8562,2.8568,2.8535,2.8547,2.8546,2.8555,2.8554,2.8553,2.8539,0,2.9147,2.9081,2.904,2.899,2.8953,2.8913,2.8881,2.8836,2.8801,2.8764,2.8724,2.8681,2.8664,2.8643,2.8621,2.8578,2.8565,2.8578,2.8522,2.8521,2.8538,2.8542,2.8555,2.8545,2.8537,2.8536,2.8536,0,2.9127,2.9084,2.9031,2.897,2.8953,2.8925,2.8874,2.8839,2.8787,2.8763,2.8727,2.8694,2.8653,2.8644,2.8586,2.8596,2.8571,2.8546,2.8545,2.8537,2.8528,2.8534,2.854,2.8538,2.8532,2.8532,2.8532,0,2.915,2.9079,2.9038,2.9014,2.8942,2.8924,2.8893,2.8842,2.8813,2.8767,2.8748,2.8697,2.867,2.8631,2.8585,2.8583,2.8532,2.8519,2.851,2.8511,2.85,2.8501,2.8501,2.8485,2.8485,2.8485,2.8485,0,2.9144,2.9113,2.9048,2.9023,2.8988,2.894,2.8906,2.8871,2.8826,2.8793,2.8754,2.8723,2.8665,2.8627,2.859,2.8548,2.8536,2.8514,2.8505,2.8517,2.852,2.8499,2.8498,2.8485,2.8485,2.8485,2.8485,0,2.9164,2.9119,2.9072,2.9009,2.8992,2.8968,2.8913,2.8887,2.8851,2.8809,2.8796,2.8738,2.8692,2.8643,2.8578,2.8554,2.8513,2.85,2.8531,2.8525,2.8518,2.852,2.8504,2.85,2.8488,2.8488,2.8489,0,2.9162,2.9138,2.9073,2.9049,2.9019,2.898,2.8951,2.8903,2.8874,2.8815,2.8795,2.8746,2.8704,2.8631,2.8582,2.8533,2.8518,2.8517,2.851,2.8524,2.8518,2.852,2.8517,2.8518,2.8519,2.8519,2.8519,0,2.9165,2.9144,2.9104,2.9057,2.9024,2.8984,2.8943,2.8925,2.8869,2.8838,2.8791,2.8758,2.8694,2.8645,2.859,2.8556,2.8528,2.8522,2.8517,2.8529,2.8548,2.8537,2.8536,2.8522,2.8522,2.8522,2.8521,2.8521,2.9173,2.915,2.9101,2.9058,2.9022,2.8985,2.8957,2.8918,2.8878,2.8823,2.8797,2.875,2.8699,2.8623,2.859,2.8551,2.8543,2.8536,2.8534,2.8533,2.8536,2.8555,2.8541,2.8541,2.8541,2.8541,2.8541,0,2.9173,2.914,2.9101,2.9045,2.9011,2.899,2.8943,2.8916,2.8875,2.8831,2.8791,2.8737,2.869,2.8638,2.8588,2.8567,2.8552,2.8555,2.8555,2.8548,2.8546,2.8556,2.8567,2.8567,2.8567,2.8567,2.8567,2.8567,2.9169,2.9129,2.9102,2.9044,2.901,2.8965,2.894,2.8905,2.8869,2.8811,2.8772,2.874,2.8692,2.8638,2.8594,2.858,2.8563,2.8569,2.8551,2.855,2.8548,2.8546,2.8554,2.8566,2.8566,2.8556,2.8555,2.8555]}]]